Погода в Дюртюлях

Россия / Республика Башкортостан     55°29′07″N   54°52′24″E
темп.,
°C
ветер,
м/с
пор.,
м/с
влажн.,
%
обл.,
%
осадки,
мм/ч
давл.,
гПа
погр.,
м
17 апреля, сб
сб1723:00+8св49835 0.0 1025333
02:00+6св410824 0.0 1025251
05:00+4ссв410812 0.0 1025211
08:00+5ссв49744 0.0 1025251
11:00+10ссв67525 0.0 1025613
14:00+12ссв66405 0.0 10251102
17:00+13ссв55331 0.0 10241173
20:00+9ссв36460 0.0 1023129
18 апреля, вс
вс1823:00+6ссв34600 0.0 102362
02:00+4ссв33690 0.0 102333
05:00+3ссв33740 0.0 102327
08:00+4с25720 0.0 1022145
11:00+9с46525 0.0 10221047
14:00+11ссв674763 0.0 10221796
17:00+8св785115 0.0 10241285
20:00+6св594422 0.0 1025481
19 апреля, пн
пн1923:00+3всв7125715 0.0 1028715
02:00+1всв7135396 0.0 1029638
05:000всв71352100 0.0 1031567
08:000всв7124697 0.0 1032785
11:00+3в8103280 0.0 10331358
14:00+6в78260 0.0 10321743
17:00+7всв78250 0.0 10321838
20:00+4всв610350 0.0 1033429
20 апреля, вт
вт2023:00+2в511440 0.0 1035305
02:000вюв49510 0.0 1036213
05:00−1юв34560 0.0 103787
08:00+1юв35430 0.0 1038306
11:00+5вюв34310 0.0 10381022
14:00+7юв33280 0.0 10371266
17:00+9вюв23260 0.0 10361326
20:00+7в22390 0.0 103538
21 апреля, ср
ср2123:00+4юв22470 0.0 103521
02:00+3ююв22500 0.0 103514
05:00+2ююв33511 0.0 103627
08:00+4ююв36510 0.0 1036182
11:00+8ю57327 0.0 1035848
14:00+12ююв672713 0.0 10341215
17:00+13ю68275 0.0 10331384
20:00+10ю4840100 0.0 1033164